Location: Newark
(13.0000°N, 151.6000°E)
Time: 11:02:45
(UTC+00:00)

Hubble Space Telescope - Pass Details

Date: 14 April 2020
Orbit: 536 x 540 km, 28.5° (Epoch: 01 June)

Event Time Altitude Azimuth Distance (km) Brightness Sun altitude
Rises 10:10:15 0° 313° (NW) 2,661 5.3 -30.1°
Reaches altitude 10° 10:13:03 10° 332° (NNW) 1,771 3.9 -30.7°
Enters shadow 10:13:52 13° 342° (NNW) 1,568 3.5 -30.9°
